Find Starlink 35737

NORAD ID: 66219 Int'l Des: 2025-244 Owner: SPXS Country: US Constellation: starlink operational
LEOCIRCULAR

現在のビュー

3D地球を読み込み中...

About Starlink 35737

Starlink 35737 (NORAD 66219) is a starlink constellation satellite (v2 mini) launched Oct 28, 2025 by SPXS of US. It operates in LEO, CIRCULAR orbit with a mass of 575.00 kg.

Starlink 35737について

説明を読み込み中...

次回通過

Passes for default location (London). Set your location on the main map for personalized predictions.

高度履歴

Loading altitude history...

軌道要素

1 66219U 25244P 26193.79985413 .00014626 00000-0 44311-3 0 9993
2 66219 53.1599 7.4305 0000757 86.5455 273.5634 15.34403263 40835
Epoch: Jul 12, 2026 • Age: 5 hours

現在のステータス

高度 462.8 km
遠地点 / 近地点 N/A
速度 7.64 km/s
衛星直下点 8.54°N, 120.28°W
打ち上げ日 Oct 28, 2025
運用期間 0.7 years
タイプ internet

技術仕様

分類 Payload
質量 575.00 kg
乾燥質量 530.00 kg
総質量 575.00 kg
長さ 0.30 m
直径 4.10 m
スパン 29.00 m
形状 Box + pan
製造者 SPXS
バスタイプ Starlink V2MO
フェーズステータス In Orbit
所有者/国 SPXS/US

Most Searched